Flag for Canada Weather past 2 weeks in Saint-Jérôme, Quebec, Canada

Now
68 °F

Scattered clouds.


Feels Like: 68 °F
Forecast: N/A
Wind: 5 mph from Southwest

Location: Montreal / Mirabel

Current Time: Jul 2, 2015 at 7:39:16 PM

Latest Report: Jul 2, 2015 at 7:00 PM


Visibility: 45 mi

Pressure: 29.88 "Hg

Humidity: 53%

Dew point: 50 °F

Location of Saint-JérômeLocation

Historic Weather in Saint-Jérôme — Graph

°F

Saint-Jérôme temperature yesterday

Maximum temperature yesterday: 70 °F (at 4:55 PM)
Minimum temperature yesterday: 61 °F (at 9:00 PM)
Average temperature yesterday: 65 °F

Past Weeks' High & Low Weather Summary

 TemperatureHumidityPressure
High79 °F (Jun 18, 5:00 PM)100% (Jun 18, 11:00 PM)30.19 "Hg (Jun 18, 11:00 PM)
Low45 °F (Jun 20, 4:00 AM)35% (Jun 25, 3:00 PM)29.51 "Hg (Jun 23, 2:00 PM)
Average63 °F75%29.91 "Hg
* Reported Jun 17 6:00 PM — Jul 2 6:00 PM, Saint-Jérôme, Weather by CustomWeather, © 2015

Note: Actual official high and low records may vary slightly from our data, if they occured in-between our weather recording intervals... More about our weather records

Advertising

Saint-Jérôme weather history for previous 24 hours

 ConditionsComfort  
Time TempWeatherWind HumidityBarometerVisibility
6:00 PM
Thu, Jul 2
70 °FScattered clouds.10 mph46%29.87 "Hg45 mi
5:00 PM72 °FScattered clouds.9 mph44%29.86 "Hg45 mi
4:00 PM72 °FPartly sunny.9 mph47%29.86 "Hg45 mi
3:00 PM72 °FPartly sunny.8 mph50%29.86 "Hg45 mi
2:00 PM70 °FPartly sunny.13 mph50%29.85 "Hg45 mi
1:00 PM68 °FBroken clouds.10 mph60%29.84 "Hg45 mi
12:00 PM66 °FScattered clouds.12 mph64%29.84 "Hg45 mi
11:50 AM66 °FScattered clouds.8 mph64%29.84 "Hg45 mi
11:00 AM63 °FScattered clouds.7 mph73%29.84 "Hg45 mi
10:00 AM61 °FPassing clouds.13 mph72%29.84 "Hg45 mi
9:00 AM59 °FScattered clouds.8 mph72%29.85 "Hg45 mi
8:00 AM57 °FPassing clouds.10 mph77%29.83 "Hg45 mi
7:00 AM55 °FPartly sunny.9 mph82%29.83 "Hg45 mi
6:00 AM54 °FPassing clouds.10 mph88%29.82 "Hg45 mi
5:00 AM55 °FOvercast.7 mph77%29.80 "Hg45 mi
4:00 AM57 °FOvercast.10 mph77%29.79 "Hg25 mi
3:00 AM57 °FOvercast.7 mph82%29.78 "Hg25 mi
2:00 AM57 °FMostly cloudy.8 mph88%29.76 "Hg25 mi
1:00 AM59 °FOvercast.8 mph82%29.75 "Hg25 mi
12:00 AM59 °FPassing clouds.9 mph82%29.72 "Hg25 mi
11:00 PM
Wed, Jul 1
61 °FOvercast.8 mph83%29.71 "Hg25 mi
10:00 PM61 °FOvercast.8 mph88%29.69 "Hg25 mi
9:00 PM61 °FMostly cloudy.8 mph88%29.66 "Hg25 mi
8:00 PM64 °FPartly sunny.12 mph88%29.62 "Hg25 mi
7:00 PM64 °FMore clouds than sun.6 mph100%29.59 "Hg15 mi
Weather by CustomWeather, © 2015

See weather overviewHow to use our weather pages